Location: Cabri�res
(43.7840°N, 5.4986°E)
Time: 13:29:36
(UTC+00:00)

ATLAS 2AS CENTAUR R/B - Visible Passes

Search period start: 06 August 2020 00:00
Search period end: 16 August 2020 00:00
Orbit: 930 x 1282 km, 63.7° (Epoch: 19 July)

Date Brightness Start Highest point End Pass type
(mag) Time Alt. Az. Time Alt. Az. Time Alt. Az.
11 Aug 5.3 04:04:39 10° SSE 04:10:01 20° ESE 04:15:25 10° ENE visible
12 Aug 5.6 03:23:20 10° ESE 03:25:45 12° E 03:28:11 10° E visible
14 Aug 4.9 03:39:51 10° SSE 03:46:06 26° ESE 03:52:24 10° NE visible
15 Aug 5.2 02:57:16 10° SE 03:01:46 16° ESE 03:06:16 10° ENE visible
